Home   Weather   Jarrow   Past weeks
Flag for United Kingdom

Past Weather in Jarrow, England, United Kingdom — Yesterday and Last 2 Weeks

Now
46 °F

Scattered showers. Passing clouds.


Feels Like: 40 °F
Forecast: 50 / 45 °F
Wind: 14 mph from North

Location: Newcastle

Current Time: Oct 20, 2019 at 8:14:30 pm

Latest Report: Oct 20, 2019 at 7:20 pm


Visibility: N/A

Pressure: 30.07 "Hg

Humidity: 93%

Dew Point: 45 °F

Location of JarrowLocation

Past Weather in Jarrow — Graph

°F

Jarrow Temperature Yesterday

Maximum temperature yesterday: 50 °F (at 11:50 am)
Minimum temperature yesterday: 43 °F (at 12:20 am)
Average temperature yesterday: 46 °F

High & Low Weather Summary for the Past Weeks

 TemperatureHumidityPressure
High57 °F (Oct 7, 5:20 pm)100% (Oct 5, 6:20 pm)30.07 "Hg (Oct 5, 6:20 pm)
Low36 °F (Oct 17, 1:50 am)59% (Oct 8, 1:20 pm)29.33 "Hg (Oct 18, 10:50 am)
Average50 °F92%29.58 "Hg
* Reported Oct 5 6:20 pm — Oct 20 6:50 pm, Jarrow. Weather by CustomWeather, © 2019

Note: Actual official high and low records may vary slightly from our data, if they occured in-between our weather recording intervals... More about our weather records

Advertising

Jarrow Weather History for the Previous 24 Hours

Scroll right to see more
 ConditionsComfort  
Time TempWeatherWind HumidityBarometerVisibility
6:50 pm
Sun, Oct 20
46 °FScattered showers. Passing clouds.14 mph93%30.07 "HgN/A
6:20 pm46 °FScattered showers. Passing clouds.15 mph93%30.04 "HgN/A
5:50 pm46 °FSprinkles. Partly sunny.15 mph100%30.04 "Hg6 mi
5:20 pm46 °FSprinkles. Partly sunny.15 mph100%30.01 "Hg4 mi
4:50 pm46 °FScattered showers. Partly sunny.15 mph100%30.01 "Hg6 mi
4:20 pm46 °FDrizzle. Partly sunny.14 mph100%30.01 "Hg2 mi
3:50 pm48 °FScattered showers. Partly sunny.17 mph100%29.98 "Hg6 mi
3:20 pm48 °FDrizzle. Partly sunny.16 mph100%29.98 "Hg5 mi
2:50 pm48 °FDrizzle. Fog.16 mph100%29.98 "Hg2 mi
2:20 pm48 °FDrizzle. Partly sunny.16 mph100%29.95 "Hg2 mi
1:50 pm48 °FDrizzle. Partly sunny.20 mph100%29.95 "Hg2 mi
1:20 pm48 °FDrizzle. Partly sunny.18 mph100%29.92 "Hg3 mi
12:50 pm48 °FPartly sunny.20 mph100%29.92 "Hg4 mi
12:20 pm48 °FDrizzle. Partly sunny.18 mph100%29.92 "Hg4 mi
11:50 am46 °FDrizzle. Partly sunny.16 mph100%29.92 "Hg2 mi
11:20 am46 °FDrizzle. Partly sunny.15 mph100%29.89 "Hg2 mi
10:50 am46 °FDrizzle. Partly sunny.15 mph100%29.89 "Hg2 mi
10:20 am46 °FDrizzle. Partly sunny.14 mph100%29.86 "Hg4 mi
9:50 am46 °FScattered showers. Partly sunny.13 mph93%29.86 "Hg5 mi
9:20 am45 °FPartly sunny.12 mph93%29.86 "HgN/A
8:50 am45 °FPartly sunny.10 mph93%29.83 "HgN/A
8:20 am45 °FPartly sunny.13 mph93%29.83 "HgN/A
7:50 am45 °FPartly sunny.14 mph93%29.80 "HgN/A
6:50 am45 °FPassing clouds.13 mph87%29.77 "HgN/A
6:20 am45 °FPartly cloudy.15 mph93%29.77 "HgN/A
5:50 am46 °FPartly cloudy.14 mph87%29.77 "Hg6 mi
5:20 am46 °FPartly cloudy.13 mph87%29.74 "Hg6 mi
4:50 am46 °FLight rain. Passing clouds.15 mph93%29.74 "Hg6 mi
3:50 am46 °FLight rain. Passing clouds.14 mph93%29.71 "Hg6 mi
3:20 am46 °FLight rain. Passing clouds.15 mph93%29.71 "Hg4 mi
2:50 am46 °FLight rain. Passing clouds.15 mph100%29.71 "Hg4 mi
2:20 am46 °FLight rain. Passing clouds.14 mph93%29.71 "Hg4 mi
1:50 am46 °FPassing clouds.14 mph93%29.68 "HgN/A
1:20 am46 °FPassing clouds.13 mph93%29.68 "HgN/A
12:50 am46 °FPassing clouds.14 mph93%29.68 "HgN/A
12:20 am46 °FPassing clouds.12 mph93%29.65 "HgN/A
11:50 pm
Sat, Oct 19
48 °FPassing clouds.10 mph87%29.65 "HgN/A
11:20 pm48 °FPassing clouds.12 mph94%29.65 "HgN/A
10:50 pm48 °FPassing clouds.10 mph94%29.62 "HgN/A
10:20 pm48 °FPassing clouds.10 mph94%29.62 "HgN/A
9:20 pm48 °FPassing clouds.13 mph94%29.59 "HgN/A
8:50 pm48 °FPassing clouds.10 mph94%29.59 "HgN/A
8:20 pm46 °FPassing clouds.12 mph100%29.59 "HgN/A
Weather by CustomWeather, © 2019

See weather overview